2011 RC17

Japanese version
Home page
Updated on September 3, 2012

---------------------------------------------------------------------

* Profile

Discovery Date September 2, 2011
Magnitude 19.5 mag
Discoverer Leonid Elenin (ISON-NM Observatory, Mayhill)

* Pictures

* Orbital Elements

The following orbital elements are taken from MPO224723

Epoch 2012 Sept. 30.0 TT = JDT 2456200.5                MPC
M  21.23847              (2000.0)            P               Q
n   0.06210031     Peri.  193.95265     +0.68687588     -0.71893298
a   6.3154876      Node   212.86422     +0.68420761     +0.68907054
e   0.5378740      Incl.   11.31558     +0.24507440     +0.09119850
P  15.9            H   15.7           G   0.15           U   2
From 66 observations 2011 Sept. 2-2012 Feb. 15, mean residual 0".42.

* Magnitudes Graph

        H = 15.1  G = 0.15

---------------------------------------------------------------------

The orbital elements are published at the MPC Ephemerides and Orbital Elements.
The magnitudes graphs are made with Comet for Windows.

---------------------------------------------------------------------

Copyright(C) Seiichi Yoshida (comet@aerith.net). All rights reserved.